GW2897 Weather Reports


Display with metric or nautical units.
time (UTC)temp
F
wind
direction
speed
MPH
gust
MPH
rain 1hr
in
rain 24hr
in
rain mn
in
humidity
%
barometer
mb
20260902041800 76 0 0.0 0.0 0.00 0.00 0.00 88 1017.5
20260902040900 75 0 0.0 0.0 0.00 0.00 0.00 89 1017.5
20260902040001 76 0 0.0 0.0 0.00 0.00 0.00 89 1017.5
20260902035401 76 0 0.0 0.0 0.00 0.00 0.00 89 1017.5
20260902034501 76 0 0.0 0.0 0.00 0.00 0.00 89 1017.5
20260902033601 76 0 0.0 0.0 0.00 0.00 0.00 89 1017.4
20260902032701 77 0 0.0 0.0 0.00 0.00 0.00 89 1017.5
20260902031801 77 0 0.0 0.0 0.00 0.00 0.00 88 1017.5
20260902030922 77 0 0.0 0.0 0.00 0.00 0.00 87 1017.5
20260902030022 77 0 0.0 0.0 0.00 0.00 0.00 86 1017.5
20260902025400 77 0 0.0 0.0 0.00 0.00 0.00 86 1017.6
20260902024501 77 0 0.0 0.0 0.00 0.00 0.00 86 1017.6
20260902023601 77 0 0.0 0.0 0.00 0.00 0.00 86 1017.5
20260902022701 78 0 0.0 0.0 0.00 0.00 0.00 86 1017.4
20260902021801 78 0 0.0 0.0 0.00 0.00 0.00 86 1017.3
20260902020901 78 0 0.0 0.0 0.00 0.00 0.00 86 1017.3
20260902020001 78 0 0.0 0.0 0.00 0.00 0.00 86 1017.3
20260902015401 78 0 0.0 0.0 0.00 0.00 0.00 85 1017.3
20260902014501 78 0 0.0 0.0 0.00 0.00 0.00 84 1017.2
20260902013601 79 0 0.0 0.0 0.00 0.00 0.00 84 1017.2
20260902012701 79 0 0.0 0.0 0.00 0.00 0.00 84 1017.1
20260902011801 80 0 0.0 0.0 0.00 0.00 0.00 84 1017.1
20260902010901 80 0 0.0 0.0 0.00 0.00 0.00 82 1017.0
20260902010001 81 0 0.0 0.0 0.00 0.00 0.00 81 1016.9
20260902005402 81 0 0.0 0.0 0.00 0.00 0.00 82 1016.9
20260902004501 82 124 0.0 1.0 0.00 0.00 0.00 82 1016.8
20260902003622 82 124 0.0 1.0 0.00 0.00 0.00 81 1016.7
20260902002722 83 124 0.0 1.0 0.00 0.00 0.00 79 1016.8
20260902001801 84 132 0.0 1.0 0.00 0.00 0.00 78 1016.7
20260902000901 85 133 0.0 1.0 0.00 0.00 0.00 76 1016.6
20260902000002 86 133 0.0 1.0 0.00 0.00 0.00 74 1016.6
20260901235401 86 137 0.0 3.0 0.00 0.00 0.00 73 1016.6
20260901234522 87 130 0.0 2.0 0.00 0.00 0.00 73 1016.8
20260901233622 89 0 0.0 0.0 0.00 0.00 0.00 72 1016.8
20260901232701 91 0 0.0 0.0 0.00 0.00 0.00 71 1016.8
20260901231801 92 122 0.0 1.0 0.00 0.00 0.00 68 1016.8
20260901230902 93 125 0.0 1.0 0.00 0.00 0.00 66 1016.8
20260901230001 94 129 0.0 1.0 0.00 0.00 0.00 65 1016.8
20260901225401 93 129 0.0 1.0 0.00 0.00 0.00 65 1016.7
20260901224501 93 122 0.0 1.0 0.00 0.00 0.00 63 1016.7
20260901223601 93 116 0.0 2.0 0.00 0.00 0.00 66 1016.7
20260901222723 93 119 0.0 1.0 0.00 0.00 0.00 65 1016.7
20260901221802 93 120 0.0 2.0 0.00 0.00 0.00 62 1016.7
20260901220902 94 116 0.0 2.0 0.00 0.00 0.00 61 1016.7
20260901220002 95 115 1.0 4.0 0.00 0.00 0.00 58 1016.6
20260901215401 95 122 1.0 4.0 0.00 0.00 0.00 58 1016.6
20260901214502 95 142 2.0 7.0 0.00 0.00 0.00 55 1016.4
20260901213602 96 121 0.0 3.0 0.00 0.00 0.00 54 1016.5
20260901212701 95 135 0.0 1.0 0.00 0.00 0.00 55 1016.5
20260901211802 95 129 0.0 1.0 0.00 0.00 0.00 55 1016.5
20260901210902 95 155 1.0 3.0 0.00 0.00 0.00 54 1016.5
20260901210002 95 102 1.0 3.0 0.00 0.00 0.00 53 1016.5
20260901205402 96 90 1.0 3.0 0.00 0.00 0.00 53 1016.6
20260901204502 97 203 1.0 3.0 0.00 0.00 0.00 51 1016.6
20260901203602 98 307 0.0 1.0 0.00 0.00 0.00 50 1016.8
20260901202702 96 266 1.0 4.0 0.00 0.00 0.00 50 1016.8
20260901201802 96 127 1.0 4.0 0.00 0.00 0.00 51 1016.9
20260901200902 95 155 0.0 2.0 0.00 0.00 0.00 54 1017.0
20260901200002 93 243 0.0 1.0 0.00 0.00 0.00 60 1017.1
20260901195401 94 178 0.0 2.0 0.00 0.00 0.00 57 1017.1
20260901194502 94 251 1.0 5.0 0.00 0.00 0.00 55 1017.2
20260901193602 94 274 1.0 4.0 0.00 0.00 0.00 55 1017.3
20260901192702 94 249 2.0 5.0 0.00 0.00 0.00 57 1017.4
20260901191802 94 275 2.0 6.0 0.00 0.00 0.00 57 1017.5
20260901190923 95 260 2.0 5.0 0.00 0.00 0.00 55 1017.5
20260901190002 94 315 2.0 6.0 0.00 0.00 0.00 59 1017.7
20260901185423 94 339 1.0 5.0 0.00 0.00 0.00 57 1017.7
20260901184502 93 312 2.0 5.0 0.00 0.00 0.00 57 1017.8
20260901183602 93 308 2.0 6.0 0.00 0.00 0.00 58 1017.8
20260901182723 93 287 2.0 6.0 0.00 0.00 0.00 59 1017.9
20260901181802 93 262 1.0 6.0 0.00 0.00 0.00 59 1018.0
20260901180902 93 347 0.0 2.0 0.00 0.00 0.00 57 1018.1
20260901180002 93 309 2.0 4.0 0.00 0.00 0.00 56 1018.1
20260901175402 95 301 2.0 5.0 0.00 0.00 0.00 57 1018.1
20260901174502 94 319 1.0 7.0 0.00 0.00 0.00 56 1018.2
20260901173602 94 2 1.0 3.0 0.00 0.00 0.00 57 1018.4
20260901172702 93 305 2.0 6.0 0.00 0.00 0.00 58 1018.5
20260901171802 94 286 2.0 8.0 0.00 0.00 0.00 59 1018.7
20260901170902 94 198 1.0 3.0 0.00 0.00 0.00 58 1018.7
20260901170002 93 297 3.0 8.0 0.00 0.00 0.00 59 1018.8
20260901165402 93 323 2.0 8.0 0.00 0.00 0.00 59 1018.9
20260901164523 92 155 1.0 4.0 0.00 0.00 0.00 60 1019.1
20260901163602 90 297 2.0 4.0 0.00 0.00 0.00 62 1019.2
20260901162702 91 282 4.0 8.0 0.00 0.00 0.00 63 1019.3
20260901161823 92 284 2.0 7.0 0.00 0.00 0.00 60 1019.3
20260901160902 91 287 2.0 7.0 0.00 0.00 0.00 63 1019.5
20260901160003 90 303 4.0 9.0 0.00 0.00 0.00 63 1019.6
20260901155402 91 298 3.0 10.0 0.00 0.00 0.00 64 1019.6
20260901154502 91 312 1.0 5.0 0.00 0.00 0.00 63 1019.6
20260901153602 90 306 2.0 5.0 0.00 0.00 0.00 64 1019.7
20260901152703 90 191 2.0 5.0 0.00 0.00 0.00 65 1019.7
20260901151803 89 287 3.0 7.0 0.00 0.00 0.00 67 1019.7
20260901150902 89 282 4.0 8.0 0.00 0.00 0.00 67 1019.8
20260901150002 88 290 2.0 5.0 0.00 0.00 0.00 70 1019.8
20260901145424 88 303 2.0 4.0 0.00 0.00 0.00 70 1019.9
20260901144524 87 286 2.0 7.0 0.00 0.00 0.00 72 1019.9
20260901143624 87 320 2.0 7.0 0.00 0.00 0.00 73 1019.9
20260901142703 86 278 2.0 5.0 0.00 0.00 0.00 74 1019.9
20260901141803 86 281 1.0 4.0 0.00 0.00 0.00 77 1019.9
20260901140903 84 243 0.0 2.0 0.00 0.00 0.00 79 1019.7
20260901140003 83 330 0.0 2.0 0.00 0.00 0.00 82 1019.7
20260901135403 82 334 1.0 3.0 0.00 0.00 0.00 83 1019.7
20260901134503 81 297 1.0 2.0 0.00 0.00 0.00 84 1019.8
20260901133624 80 272 0.0 2.0 0.00 0.00 0.00 87 1019.9
20260901132702 80 271 1.0 3.0 0.00 0.00 0.00 87 1019.8
20260901131803 78 313 1.0 3.0 0.00 0.00 0.00 89 1019.9
20260901130924 77 342 0.0 2.0 0.00 0.00 0.00 95 1019.8
20260901130003 76 138 0.0 1.0 0.00 0.00 0.00 98 1019.8
20260901125424 75 138 0.0 1.0 0.00 0.00 0.00 98 1019.7
20260901124503 74 0 0.0 0.0 0.00 0.00 0.00 98 1019.7
20260901123603 73 0 0.0 0.0 0.00 0.00 0.00 98 1019.6
20260901122724 72 139 0.0 1.0 0.00 0.00 0.00 98 1019.6
20260901121803 72 0 0.0 0.0 0.00 0.00 0.00 98 1019.5
20260901120903 71 0 0.0 0.0 0.00 0.00 0.00 97 1019.4
20260901120003 71 139 0.0 2.0 0.00 0.00 0.00 97 1019.4
20260901115403 71 0 0.0 0.0 0.00 0.00 0.00 97 1019.4
20260901114524 70 0 0.0 0.0 0.00 0.00 0.00 97 1019.2
20260901113603 70 0 0.0 0.0 0.00 0.00 0.00 97 1019.1
20260901112703 70 120 0.0 2.0 0.00 0.00 0.00 97 1019.1
20260901111803 70 0 0.0 0.0 0.00 0.00 0.00 97 1019.0
20260901110924 70 0 0.0 0.0 0.00 0.00 0.00 97 1018.9
20260901110003 70 0 0.0 0.0 0.00 0.00 0.00 96 1018.7
20260901105403 70 0 0.0 0.0 0.00 0.00 0.00 96 1018.7
20260901104503 70 0 0.0 0.0 0.00 0.00 0.00 96 1018.8
20260901103603 70 0 0.0 0.0 0.00 0.00 0.00 97 1018.7
20260901102703 70 0 0.0 0.0 0.00 0.00 0.00 96 1018.6
20260901101803 70 0 0.0 0.0 0.00 0.00 0.00 97 1018.7
20260901100903 70 0 0.0 0.0 0.00 0.00 0.00 97 1018.4
20260901100000 70 0 0.0 0.0 0.00 0.00 0.00 96 1018.5
20260901095401 70 0 0.0 0.0 0.00 0.00 0.00 96 1018.5
20260901094521 70 0 0.0 0.0 0.00 0.00 0.00 96 1018.5
20260901093600 70 0 0.0 0.0 0.00 0.00 0.00 96 1018.6
20260901092700 70 0 0.0 0.0 0.00 0.00 0.00 96 1018.4
20260901091801 70 0 0.0 0.0 0.00 0.00 0.00 96 1018.5
20260901090900 70 0 0.0 0.0 0.00 0.00 0.00 96 1018.4
20260901090124 70 0 0.0 0.0 0.00 0.00 0.00 96 1018.3
20260901085400 70 0 0.0 0.0 0.00 0.00 0.00 96 1018.4
20260901084500 70 0 0.0 0.0 0.00 0.00 0.00 95 1018.3
20260901083600 70 0 0.0 0.0 0.00 0.00 0.00 95 1018.3
20260901082700 70 0 0.0 0.0 0.00 0.00 0.00 95 1018.4
20260901081800 70 0 0.0 0.0 0.00 0.00 0.00 95 1018.4
20260901080900 70 0 0.0 0.0 0.00 0.00 0.00 95 1018.4
20260901080000 70 0 0.0 0.0 0.00 0.00 0.00 95 1018.4
20260901075400 70 0 0.0 0.0 0.00 0.00 0.00 95 1018.4
20260901074500 71 0 0.0 0.0 0.00 0.00 0.00 95 1018.5
20260901073600 71 0 0.0 0.0 0.00 0.00 0.00 94 1018.5
20260901072700 71 0 0.0 0.0 0.00 0.00 0.00 95 1018.6
20260901071821 71 0 0.0 0.0 0.00 0.00 0.00 94 1018.6
20260901070900 71 0 0.0 0.0 0.00 0.00 0.00 94 1018.7
20260901070000 71 0 0.0 0.0 0.00 0.00 0.00 94 1018.8
20260901065400 71 0 0.0 0.0 0.00 0.00 0.00 94 1018.8
20260901064500 71 0 0.0 0.0 0.00 0.00 0.00 94 1019.0
20260901063621 71 0 0.0 0.0 0.00 0.00 0.00 93 1018.9
20260901062722 71 0 0.0 0.0 0.00 0.00 0.00 93 1018.9
20260901061800 72 0 0.0 0.0 0.00 0.00 0.00 93 1019.0
20260901060900 72 0 0.0 0.0 0.00 0.00 0.00 93 1019.0
20260901060000 72 0 0.0 0.0 0.00 0.00 0.00 92 1019.1
20260901055400 72 0 0.0 0.0 0.00 0.00 0.00 92 1019.0
20260901054500 72 0 0.0 0.0 0.00 0.00 0.00 92 1019.1
20260901053621 72 0 0.0 0.0 0.00 0.00 0.00 92 1019.1
20260901052700 72 0 0.0 0.0 0.00 0.00 0.00 92 1019.1
20260901051800 72 0 0.0 0.0 0.00 0.00 0.00 92 1019.0
20260901050900 72 0 0.0 0.0 0.00 0.00 0.00 93 1019.0
20260901050021 72 0 0.0 0.0 0.00 0.00 0.00 93 1019.2
20260901045400 72 0 0.0 0.0 0.00 0.00 0.00 93 1019.1
20260901044522 72 0 0.0 0.0 0.00 0.00 0.00 94 1018.9
20260901043601 72 0 0.0 0.0 0.00 0.00 0.00 93 1018.9
20260901042701 72 0 0.0 0.0 0.00 0.00 0.00 93 1018.8